Location: G�ndlingen
(48.0142°N, 7.6396°E)
Time: 02:43:03
(UTC+00:00)

NOSS 3-4 (A) - Pass Details

Date: 05 July 2020
Orbit: 892 x 1320 km, 63.4° (Epoch: 12 July)

Event Time Altitude Azimuth Distance (km) Brightness Sun altitude
Rises 22:05:04 0° 318° (NW) 3,797 7.9 -16.5°
Reaches altitude 10° 22:07:35 10° 319° (NW) 2,898 7.1 -16.7°
Maximum altitude 22:14:32 88° 49° (NE) 1,157 3.8 -17.1°
Enters shadow 22:19:47 22° 140° (SE) 2,350 4.9 -17.4°
